,,Stat1,,Stat2,,Stat3,,Stat4,,Wind1,,Wind1,
time,status,PR1M_SUM,status,RH1M_AVG,status,SR1M_AVG,status,TA1M_AVG,status,W1dAve1m,status,W1sAve1m,
2000-02-17, 00:00:00,VALID,0,VALID,98.2912,VALID,-0.0509425,VALID,20.6523,VALID,150,VALID,0.544588,
2000-02-17, 00:01:00,VALID,0,VALID,98.0979,VALID,-0.0679233,VALID,20.6396,VALID,149,VALID,0.509291,
2000-02-17, 00:02:00,VALID,0,VALID,97.8118,VALID,-0.0679233,VALID,20.6098,VALID,160,VALID,0.437717,
2000-02-17, 00:03:00,VALID,0,VALID,97.8106,VALID,-0.0509425,VALID,20.5968,VALID,166,VALID,0.411024,
2000-02-17, 00:04:00,VALID,0,VALID,97.8398,VALID,-0.101885,VALID,20.5976,VALID,166,VALID,0.326069,
2000-02-17, 00:05:00,VALID,0,VALID,97.8894,VALID,-0.0509425,VALID,20.5842,VALID,166,VALID,0.107171,
2000-02-17, 00:06:01,VALID,0,VALID,97.8309,VALID,0.0339617,VALID,20.5734,VALID,165,VALID,0,
2000-02-17, 00:07:00,VALID,0,VALID,97.7521,VALID,0.0509425,VALID,20.5406,VALID,165,VALID,0,
2000-02-17, 00:08:00,VALID,0,VALID,97.8169,VALID,0.0169808,VALID,20.5245,VALID,163,VALID,0,
2000-02-17, 00:09:00,VALID,0,VALID,97.9403,VALID,0.0339617,VALID,20.5501,VALID,163,VALID,0,
2000-02-17, 00:10:00,VALID,0,VALID,97.8004,VALID,0.0169808,VALID,20.5252,VALID,162,VALID,0,
2000-02-17, 00:11:00,VALID,0,VALID,97.7406,VALID,0,VALID,20.4951,VALID,162,VALID,0,
2000-02-17, 00:12:00,VALID,0,VALID,97.6898,VALID,0,VALID,20.49,VALID,176,VALID,0,
2000-02-17, 00:13:00,VALID,0,VALID,97.6961,VALID,0.0169808,VALID,20.4706,VALID,184,VALID,0,
2000-02-17, 00:14:00,VALID,0,VALID,97.719,VALID,-0.0339617,VALID,20.4609,VALID,185,VALID,0,
2000-02-17, 00:15:00,VALID,0,VALID,97.6656,VALID,0,VALID,20.4514,VALID,192,VALID,0,
2000-02-17, 00:16:01,VALID,0,VALID,97.6618,VALID,-0.0169808,VALID,20.4216,VALID,193,VALID,0,
2000-02-17, 00:17:01,VALID,0,VALID,97.6974,VALID,0.0339617,VALID,20.4156,VALID,193,VALID,0,
2000-02-17, 00:18:00,VALID,0,VALID,97.7699,VALID,0,VALID,20.4154,VALID,206,VALID,0,
2000-02-17, 00:19:00,VALID,0,VALID,97.9136,VALID,0.0169808,VALID,20.4447,VALID,223,VALID,0,
2000-02-17, 00:20:00,VALID,0,VALID,97.9492,VALID,0,VALID,20.4474,VALID,223,VALID,0,
2000-02-17, 00:21:00,VALID,0,VALID,97.7813,VALID,-0.0169808,VALID,20.4517,VALID,225,VALID,0,
2000-02-17, 00:22:00,VALID,0,VALID,97.677,VALID,0,VALID,20.4253,VALID,176,VALID,0,
2000-02-17, 00:23:00,VALID,0,VALID,97.6338,VALID,0.0169808,VALID,20.4124,VALID,122,VALID,0,
2000-02-17, 00:24:00,VALID,0,VALID,97.658,VALID,0,VALID,20.4054,VALID,123,VALID,0,
2000-02-17, 00:25:00,VALID,0,VALID,97.5893,VALID,0.0169808,VALID,20.4027,VALID,236,VALID,0,
2000-02-17, 00:26:00,VALID,0,VALID,97.5982,VALID,0.0169808,VALID,20.3895,VALID,254,VALID,0,
2000-02-17, 00:27:00,VALID,0,VALID,97.7241,VALID,0.0169808,VALID,20.4084,VALID,143,VALID,0,
2000-02-17, 00:28:00,VALID,0,VALID,97.8754,VALID,0,VALID,20.4383,VALID,93,VALID,0.450284,
2000-02-17, 00:29:00,VALID,0,VALID,98.0038,VALID,0.0169808,VALID,20.4571,VALID,102,VALID,0.830078,
2000-02-17, 00:30:00,VALID,0,VALID,98.0916,VALID,0.0169808,VALID,20.5093,VALID,108,VALID,0.477163,
2000-02-17, 00:31:00,VALID,0,VALID,98.0725,VALID,0,VALID,20.5384,VALID,111,VALID,0.0464527,
2000-02-17, 00:32:00,VALID,0,VALID,98.0026,VALID,0,VALID,20.5613,VALID,112,VALID,0.141016,
2000-02-17, 00:33:00,VALID,0,VALID,97.897,VALID,0.0339617,VALID,20.5645,VALID,182,VALID,0.309028,
2000-02-17, 00:34:00,VALID,0,VALID,97.6529,VALID,0.0169808,VALID,20.5481,VALID,230,VALID,0.471423,
2000-02-17, 00:35:00,VALID,0,VALID,97.4787,VALID,-0.0509425,VALID,20.5263,VALID,229,VALID,0.376339,
2000-02-17, 00:36:00,VALID,0,VALID,97.4405,VALID,-0.0509425,VALID,20.5139,VALID,222,VALID,0.163867,
2000-02-17, 00:37:00,VALID,0,VALID,97.5092,VALID,-0.0339617,VALID,20.5042,VALID,256,VALID,0,
2000-02-17, 00:38:00,VALID,0,VALID,97.5232,VALID,-0.0679233,VALID,20.4947,VALID,291,VALID,0,
2000-02-17, 00:39:01,VALID,0,VALID,97.6236,VALID,-0.0679233,VALID,20.4912,VALID,291,VALID,0,
2000-02-17, 00:40:00,VALID,0,VALID,97.705,VALID,-0.0849042,VALID,20.494,VALID,291,VALID,0,
2000-02-17, 00:41:00,VALID,0,VALID,97.7597,VALID,-0.101885,VALID,20.5206,VALID,291,VALID,0,
2000-02-17, 00:42:00,VALID,0,VALID,97.7788,VALID,-0.101885,VALID,20.5327,VALID,291,VALID,0,
2000-02-17, 00:43:00,VALID,0,VALID,97.8055,VALID,-0.0339617,VALID,20.5658,VALID,291,VALID,0,
2000-02-17, 00:44:00,VALID,0,VALID,97.8373,VALID,-0.0679233,VALID,20.5914,VALID,291,VALID,0,
2000-02-17, 00:45:00,VALID,0,VALID,97.8627,VALID,-0.0679233,VALID,20.6078,VALID,276,VALID,0,
2000-02-17, 00:46:00,VALID,0,VALID,97.8792,VALID,-0.0679233,VALID,20.6046,VALID,198,VALID,0,
2000-02-17, 00:47:00,VALID,0,VALID,97.8741,VALID,-0.0339617,VALID,20.6103,VALID,168,VALID,0.175347,
2000-02-17, 00:48:00,VALID,0,VALID,97.5206,VALID,-0.0849042,VALID,20.5718,VALID,143,VALID,0.740451,
2000-02-17, 00:49:00,VALID,0,VALID,97.4977,VALID,-0.0509425,VALID,20.5591,VALID,143,VALID,0.814704,
2000-02-17, 00:50:01,VALID,0,VALID,97.6096,VALID,-0.0679233,VALID,20.5484,VALID,136,VALID,0.866787,
2000-02-17, 00:51:00,VALID,0,VALID,97.5689,VALID,-0.0849042,VALID,20.5392,VALID,134,VALID,0.657095,
2000-02-17, 00:52:00,VALID,0,VALID,97.5842,VALID,-0.0339617,VALID,20.5395,VALID,135,VALID,0.51903,
2000-02-17, 00:53:00,VALID,0,VALID,97.5956,VALID,-0.0169808,VALID,20.5295,VALID,137,VALID,0.0596217,
2000-02-17, 00:54:00,VALID,0,VALID,97.5359,VALID,-0.0339617,VALID,20.5236,VALID,168,VALID,0.127003,
2000-02-17, 00:55:00,VALID,0,VALID,97.5397,VALID,-0.0679233,VALID,20.5206,VALID,191,VALID,0,
2000-02-17, 00:56:00,VALID,0,VALID,97.4965,VALID,-0.0849042,VALID,20.4982,VALID,235,VALID,0,
2000-02-17, 00:57:00,VALID,0,VALID,97.466,VALID,-0.0849042,VALID,20.488,VALID,217,VALID,0,
2000-02-17, 00:58:00,VALID,0,VALID,97.4443,VALID,-0.0509425,VALID,20.4684,VALID,192,VALID,0,
2000-02-17, 00:59:00,VALID,0,VALID,97.4609,VALID,-0.0509425,VALID,20.452,VALID,178,VALID,0,
2000-02-17, 01:00:00,VALID,0,VALID,97.5728,VALID,-0.0339617,VALID,20.4428,VALID,162,VALID,0,
2000-02-17, 01:01:01,VALID,0,VALID,97.6134,VALID,-0.0509425,VALID,20.4363,VALID,161,VALID,0,
2000-02-17, 01:02:00,VALID,0,VALID,97.719,VALID,-0.0339617,VALID,20.446,VALID,158,VALID,0,
2000-02-17, 01:03:00,VALID,0,VALID,97.8703,VALID,-0.0339617,VALID,20.4679,VALID,154,VALID,0,
2000-02-17, 01:04:00,VALID,0,VALID,97.7559,VALID,-0.0339617,VALID,20.4458,VALID,154,VALID,0,
2000-02-17, 01:05:00,VALID,0,VALID,97.7241,VALID,-0.0509425,VALID,20.414,VALID,154,VALID,0,
2000-02-17, 01:06:00,VALID,0,VALID,97.7762,VALID,-0.0679233,VALID,20.3776,VALID,154,VALID,0,
2000-02-17, 01:07:00,VALID,0,VALID,97.8512,VALID,-0.0849042,VALID,20.3876,VALID,148,VALID,0.154247,
2000-02-17, 01:08:00,VALID,0,VALID,97.8525,VALID,-0.0509425,VALID,20.3911,VALID,136,VALID,0.626803,
2000-02-17, 01:09:00,VALID,0,VALID,97.9237,VALID,-0.0339617,VALID,20.3906,VALID,136,VALID,0.669341,
2000-02-17, 01:10:00,VALID,0,VALID,97.972,VALID,-0.101885,VALID,20.3968,VALID,137,VALID,0.612305,
2000-02-17, 01:11:00,VALID,0,VALID,98.0331,VALID,-0.101885,VALID,20.4134,VALID,139,VALID,0.613181,
2000-02-17, 01:12:01,VALID,0,VALID,98.0382,VALID,-0.0509425,VALID,20.4005,VALID,140,VALID,0.446514,
2000-02-17, 01:13:00,VALID,0,VALID,98.0356,VALID,-0.0679233,VALID,20.3978,VALID,149,VALID,0.0569853,
2000-02-17, 01:14:00,VALID,0,VALID,98.0407,VALID,-0.101885,VALID,20.3744,VALID,150,VALID,0,
2000-02-17, 01:15:00,VALID,0,VALID,98.1132,VALID,-0.0509425,VALID,20.3744,VALID,180,VALID,0,
2000-02-17, 01:16:00,VALID,0,VALID,98.1246,VALID,-0.101885,VALID,20.3811,VALID,227,VALID,0,
2000-02-17, 01:17:00,VALID,0,VALID,98.0293,VALID,-0.0679233,VALID,20.3488,VALID,245,VALID,0,
2000-02-17, 01:18:00,VALID,0,VALID,97.9695,VALID,-0.0509425,VALID,20.3197,VALID,228,VALID,0.415118,
2000-02-17, 01:19:00,VALID,0,VALID,97.9631,VALID,-0.0849042,VALID,20.2969,VALID,226,VALID,0.66266,
2000-02-17, 01:20:00,VALID,0,VALID,97.9835,VALID,-0.0849042,VALID,20.2974,VALID,215,VALID,0.460321,
2000-02-17, 01:21:00,VALID,0,VALID,98.0369,VALID,-0.0339617,VALID,20.2675,VALID,212,VALID,0.443109,
2000-02-17, 01:22:00,VALID,0,VALID,98.0661,VALID,-0.0849042,VALID,20.2584,VALID,212,VALID,0.0596591,
2000-02-17, 01:23:01,VALID,0,VALID,98.1106,VALID,-0.0679233,VALID,20.2457,VALID,206,VALID,0,
2000-02-17, 01:24:00,VALID,0,VALID,98.1526,VALID,-0.101885,VALID,20.2392,VALID,205,VALID,0,
2000-02-17, 01:25:00,VALID,0,VALID,98.2225,VALID,-0.0849042,VALID,20.2298,VALID,205,VALID,0,
2000-02-17, 01:26:00,VALID,0,VALID,98.2849,VALID,-0.0679233,VALID,20.2261,VALID,205,VALID,0,
2000-02-17, 01:27:00,VALID,0,VALID,98.3179,VALID,-0.0509425,VALID,20.2129,VALID,205,VALID,0,
2000-02-17, 01:28:00,VALID,0,VALID,98.3777,VALID,-0.0849042,VALID,20.2134,VALID,205,VALID,0,
2000-02-17, 01:29:00,VALID,0,VALID,98.4235,VALID,-0.101885,VALID,20.2228,VALID,205,VALID,0,
2000-02-17, 01:30:00,VALID,0,VALID,98.4603,VALID,-0.0679233,VALID,20.2266,VALID,238,VALID,0,
2000-02-17, 01:31:00,VALID,0,VALID,98.4603,VALID,-0.101885,VALID,20.2261,VALID,269,VALID,0,
2000-02-17, 01:32:00,VALID,0,VALID,98.487,VALID,-0.0849042,VALID,20.233,VALID,271,VALID,0,
2000-02-17, 01:33:00,VALID,0,VALID,98.5137,VALID,-0.0849042,VALID,20.2397,VALID,271,VALID,0,
2000-02-17, 01:34:00,VALID,0,VALID,98.5544,VALID,-0.0679233,VALID,20.2624,VALID,271,VALID,0,
2000-02-17, 01:35:00,VALID,0,VALID,98.5227,VALID,-0.101885,VALID,20.2653,VALID,271,VALID,0,
2000-02-17, 01:36:00,VALID,0,VALID,98.515,VALID,-0.101885,VALID,20.2653,VALID,271,VALID,0,
2000-02-17, 01:37:00,VALID,0,VALID,98.4972,VALID,-0.101885,VALID,20.2783,VALID,271,VALID,0,
2000-02-17, 01:38:00,VALID,0,VALID,98.4845,VALID,-0.101885,VALID,20.2817,VALID,271,VALID,0,
2000-02-17, 01:39:00,VALID,0,VALID,98.4336,VALID,-0.0849042,VALID,20.2785,VALID,271,VALID,0,
2000-02-17, 01:40:00,VALID,0,VALID,98.3701,VALID,-0.101885,VALID,20.2815,VALID,271,VALID,0,
2000-02-17, 01:41:00,VALID,0,VALID,98.3217,VALID,-0.101885,VALID,20.285,VALID,271,VALID,0,
2000-02-17, 01:42:00,VALID,0,VALID,98.3357,VALID,-0.0679233,VALID,20.2974,VALID,271,VALID,0,
2000-02-17, 01:43:00,VALID,0,VALID,98.2836,VALID,0.0169808,VALID,20.322,VALID,270,VALID,0,
2000-02-17, 01:44:00,VALID,0,VALID,98.1844,VALID,0.0509425,VALID,20.2891,VALID,253,VALID,0,
2000-02-17, 01:45:00,VALID,0,VALID,98.089,VALID,0.0169808,VALID,20.2964,VALID,248,VALID,0,
2000-02-17, 01:46:00,VALID,0,VALID,98.0344,VALID,0.0169808,VALID,20.2829,VALID,244,VALID,0,
2000-02-17, 01:47:00,VALID,0,VALID,98.0433,VALID,0,VALID,20.2735,VALID,243,VALID,0,
2000-02-17, 01:48:00,VALID,0,VALID,98.0407,VALID,0.0169808,VALID,20.2735,VALID,239,VALID,0,
2000-02-17, 01:49:00,VALID,0,VALID,97.9987,VALID,0.0509425,VALID,20.27,VALID,221,VALID,0,
2000-02-17, 01:50:00,VALID,0,VALID,97.9581,VALID,0.0169808,VALID,20.267,VALID,209,VALID,0,
2000-02-17, 01:51:00,VALID,0,VALID,97.8983,VALID,0.0169808,VALID,20.2571,VALID,174,VALID,0,
2000-02-17, 01:52:00,VALID,0,VALID,97.8462,VALID,0.0169808,VALID,20.2579,VALID,166,VALID,0,
2000-02-17, 01:53:00,VALID,0,VALID,97.85,VALID,0.0849042,VALID,20.2342,VALID,158,VALID,0,
2000-02-17, 01:54:00,VALID,0,VALID,97.8754,VALID,0.0169808,VALID,20.2255,VALID,158,VALID,0,
2000-02-17, 01:55:01,VALID,0,VALID,98.014,VALID,0.0339617,VALID,20.2121,VALID,158,VALID,0,
2000-02-17, 01:56:00,VALID,0,VALID,98.0954,VALID,0.0339617,VALID,20.2054,VALID,176,VALID,0,
2000-02-17, 01:57:00,VALID,0,VALID,98.1819,VALID,0.0509425,VALID,20.1989,VALID,200,VALID,0,
2000-02-17, 01:58:00,VALID,0,VALID,98.2404,VALID,0.0169808,VALID,20.1892,VALID,200,VALID,0,
2000-02-17, 01:59:00,VALID,0,VALID,98.3052,VALID,0.0169808,VALID,20.2059,VALID,200,VALID,0,
2000-02-17, 02:00:00,VALID,0,VALID,98.3713,VALID,0.0339617,VALID,20.2054,VALID,200,VALID,0,
2000-02-17, 02:01:00,VALID,0,VALID,98.3993,VALID,0.0169808,VALID,20.2086,VALID,200,VALID,0,
2000-02-17, 02:02:00,VALID,0,VALID,98.4336,VALID,0.0339617,VALID,20.2054,VALID,195,VALID,0,
2000-02-17, 02:03:00,VALID,0,VALID,98.4438,VALID,0.0169808,VALID,20.2186,VALID,157,VALID,0,
2000-02-17, 02:04:00,VALID,0,VALID,98.3612,VALID,0.0169808,VALID,20.1962,VALID,140,VALID,0,
2000-02-17, 02:05:00,VALID,0,VALID,98.2671,VALID,-0.0339617,VALID,20.1803,VALID,139,VALID,0,
2000-02-17, 02:06:00,VALID,0,VALID,98.2289,VALID,-0.0339617,VALID,20.1649,VALID,139,VALID,0,
2000-02-17, 02:07:00,VALID,0,VALID,98.1819,VALID,-0.101885,VALID,20.1525,VALID,139,VALID,0,
2000-02-17, 02:08:00,VALID,0,VALID,98.075,VALID,-0.101885,VALID,20.1426,VALID,143,VALID,0,
2000-02-17, 02:09:00,VALID,0,VALID,97.9097,VALID,-0.0849042,VALID,20.1202,VALID,176,VALID,0,
2000-02-17, 02:10:00,VALID,0,VALID,97.9059,VALID,-0.0509425,VALID,20.1008,VALID,198,VALID,0,
2000-02-17, 02:11:00,VALID,0,VALID,97.9657,VALID,-0.0849042,VALID,20.0876,VALID,204,VALID,0,
2000-02-17, 02:12:00,VALID,0,VALID,98.0127,VALID,-0.0849042,VALID,20.0782,VALID,207,VALID,0,
2000-02-17, 02:13:00,VALID,0,VALID,98.0712,VALID,-0.0679233,VALID,20.0518,VALID,178,VALID,0,
2000-02-17, 02:14:00,VALID,0,VALID,98.1335,VALID,-0.0679233,VALID,20.0424,VALID,166,VALID,0,
2000-02-17, 02:15:00,VALID,0,VALID,98.1742,VALID,-0.101885,VALID,20.0198,VALID,159,VALID,0,
2000-02-17, 02:16:00,VALID,0,VALID,98.1742,VALID,-0.0849042,VALID,19.9969,VALID,157,VALID,0,
2000-02-17, 02:17:01,VALID,0,VALID,98.1628,VALID,-0.0679233,VALID,19.9845,VALID,168,VALID,0,
2000-02-17, 02:18:00,VALID,0,VALID,98.2175,VALID,-0.0849042,VALID,19.9619,VALID,197,VALID,0,
2000-02-17, 02:19:00,VALID,0,VALID,98.2747,VALID,-0.0849042,VALID,19.952,VALID,214,VALID,0,
2000-02-17, 02:20:00,VALID,0,VALID,98.2861,VALID,-0.0679233,VALID,19.9452,VALID,213,VALID,0,
2000-02-17, 02:21:00,VALID,0,VALID,98.3116,VALID,0.0339617,VALID,19.9321,VALID,214,VALID,0.311233,
2000-02-17, 02:22:00,VALID,0,VALID,98.3523,VALID,0,VALID,19.9055,VALID,224,VALID,0.898438,
2000-02-17, 02:23:00,VALID,0,VALID,98.398,VALID,0,VALID,19.9027,VALID,219,VALID,1.05625,
2000-02-17, 02:24:00,VALID,0,VALID,98.4082,VALID,0,VALID,19.864,VALID,214,VALID,1.09844,
2000-02-17, 02:25:00,VALID,0,VALID,98.4502,VALID,0,VALID,19.8344,VALID,212,VALID,0.715763,
2000-02-17, 02:26:00,VALID,0,VALID,98.529,VALID,-0.0169808,VALID,19.8349,VALID,227,VALID,0.497613,
2000-02-17, 02:27:00,VALID,0,VALID,98.5583,VALID,0,VALID,19.8185,VALID,225,VALID,0.838405,
2000-02-17, 02:28:00,VALID,0,VALID,98.5583,VALID,-0.0169808,VALID,19.7862,VALID,229,VALID,0.828125,
2000-02-17, 02:29:00,VALID,0,VALID,98.6307,VALID,0,VALID,19.7832,VALID,216,VALID,0.551883,
2000-02-17, 02:30:00,VALID,0,VALID,98.5913,VALID,0,VALID,19.7571,VALID,201,VALID,0.93201,
2000-02-17, 02:31:00,VALID,0,VALID,98.6282,VALID,-0.0169808,VALID,19.7343,VALID,212,VALID,0.808398,
2000-02-17, 02:32:00,VALID,0,VALID,98.5455,VALID,0,VALID,19.7087,VALID,191,VALID,0.862179,
2000-02-17, 02:33:00,VALID,0,VALID,98.5913,VALID,0,VALID,19.6828,VALID,192,VALID,0.616987,
2000-02-17, 02:34:00,VALID,0,VALID,98.5748,VALID,0,VALID,19.6858,VALID,198,VALID,0.59398,
2000-02-17, 02:35:00,VALID,0,VALID,98.6015,VALID,0,VALID,19.6858,VALID,210,VALID,0.19553,
2000-02-17, 02:36:00,VALID,0,VALID,98.5697,VALID,0,VALID,19.696,VALID,190,VALID,0,
2000-02-17, 02:37:00,VALID,0,VALID,98.5773,VALID,0,VALID,19.6997,VALID,198,VALID,0,
2000-02-17, 02:38:00,VALID,0,VALID,98.5176,VALID,0,VALID,19.696,VALID,196,VALID,0,
2000-02-17, 02:39:00,VALID,0,VALID,98.5087,VALID,0.0169808,VALID,19.7092,VALID,205,VALID,0,
2000-02-17, 02:40:00,VALID,0,VALID,98.4273,VALID,-0.0169808,VALID,19.7059,VALID,199,VALID,0,
2000-02-17, 02:41:00,VALID,0,VALID,98.3027,VALID,0,VALID,19.6866,VALID,203,VALID,0,
2000-02-17, 02:42:00,VALID,0,VALID,98.1539,VALID,0,VALID,19.6863,VALID,170,VALID,0,
2000-02-17, 02:43:00,VALID,0,VALID,98.0661,VALID,0,VALID,19.7094,VALID,170,VALID,0,
2000-02-17, 02:44:00,VALID,0,VALID,97.9771,VALID,0,VALID,19.7283,VALID,170,VALID,0,
2000-02-17, 02:45:00,VALID,0,VALID,97.9428,VALID,0,VALID,19.7574,VALID,170,VALID,0,
2000-02-17, 02:46:00,VALID,0,VALID,97.7444,VALID,0,VALID,19.7609,VALID,178,VALID,0,
2000-02-17, 02:47:00,VALID,0,VALID,97.3286,VALID,0,VALID,19.7447,VALID,200,VALID,0,
2000-02-17, 02:48:00,VALID,0,VALID,97.0438,VALID,0,VALID,19.7345,VALID,212,VALID,0,
2000-02-17, 02:49:01,VALID,0,VALID,96.7564,VALID,-0.0169808,VALID,19.7544,VALID,210,VALID,0,
2000-02-17, 02:50:00,VALID,0,VALID,96.2427,VALID,-0.0169808,VALID,19.7641,VALID,197,VALID,0,
2000-02-17, 02:51:00,VALID,0,VALID,96.2261,VALID,-0.101885,VALID,19.775,VALID,179,VALID,0,
2000-02-17, 02:52:00,VALID,0,VALID,96.6025,VALID,-0.0849042,VALID,19.7971,VALID,162,VALID,0,
2000-02-17, 02:53:00,VALID,0,VALID,96.6992,VALID,-0.0849042,VALID,19.7914,VALID,159,VALID,0,
2000-02-17, 02:54:00,VALID,0,VALID,96.7322,VALID,-0.101885,VALID,19.7494,VALID,159,VALID,0,
2000-02-17, 02:55:00,VALID,0,VALID,96.8441,VALID,-0.0849042,VALID,19.7166,VALID,175,VALID,0,
2000-02-17, 02:56:00,VALID,0,VALID,96.9026,VALID,-0.101885,VALID,19.6781,VALID,203,VALID,0,
2000-02-17, 02:57:00,VALID,0,VALID,96.5809,VALID,-0.118866,VALID,19.6532,VALID,214,VALID,0.544552,
2000-02-17, 02:58:00,VALID,0,VALID,96.5148,VALID,-0.118866,VALID,19.6562,VALID,211,VALID,0.845312,
2000-02-17, 02:59:00,VALID,0,VALID,96.7424,VALID,-0.101885,VALID,19.6523,VALID,221,VALID,0.835938,
2000-02-17, 03:00:00,VALID,0,VALID,96.9408,VALID,-0.101885,VALID,19.6622,VALID,226,VALID,0.51863,
2000-02-17, 03:01:00,VALID,0,VALID,97.0997,VALID,-0.101885,VALID,19.6657,VALID,229,VALID,0.557675,
2000-02-17, 03:02:00,VALID,0,VALID,97.2688,VALID,-0.118866,VALID,19.6652,VALID,230,VALID,0.0957031,
2000-02-17, 03:03:00,VALID,0,VALID,97.3744,VALID,-0.101885,VALID,19.6622,VALID,231,VALID,0,
2000-02-17, 03:04:00,VALID,0,VALID,97.4812,VALID,-0.101885,VALID,19.6659,VALID,231,VALID,0,
2000-02-17, 03:05:00,VALID,0,VALID,97.5639,VALID,-0.0849042,VALID,19.656,VALID,231,VALID,0,
2000-02-17, 03:06:00,VALID,0,VALID,97.5956,VALID,0,VALID,19.6513,VALID,233,VALID,0,
2000-02-17, 03:07:00,VALID,0,VALID,97.6541,VALID,0,VALID,19.6446,VALID,237,VALID,0,
2000-02-17, 03:08:00,VALID,0,VALID,97.7215,VALID,0,VALID,19.6478,VALID,236,VALID,0,
2000-02-17, 03:09:00,VALID,0,VALID,97.7686,VALID,0.0169808,VALID,19.6448,VALID,226,VALID,0,
2000-02-17, 03:10:00,VALID,0,VALID,97.8144,VALID,0,VALID,19.6277,VALID,220,VALID,0,
2000-02-17, 03:11:01,VALID,0,VALID,97.85,VALID,0.0339617,VALID,19.618,VALID,242,VALID,0,
2000-02-17, 03:12:01,VALID,0,VALID,97.8423,VALID,0.0169808,VALID,19.6093,VALID,226,VALID,0,
2000-02-17, 03:13:00,VALID,0,VALID,97.8868,VALID,-0.0169808,VALID,19.5934,VALID,238,VALID,0,
2000-02-17, 03:14:00,VALID,0,VALID,97.9225,VALID,0.0169808,VALID,19.5606,VALID,238,VALID,0,
2000-02-17, 03:15:00,VALID,0,VALID,97.967,VALID,0.0339617,VALID,19.5439,VALID,235,VALID,0,
2000-02-17, 03:16:00,VALID,0,VALID,97.9962,VALID,0,VALID,19.5444,VALID,235,VALID,0,
2000-02-17, 03:17:00,VALID,0,VALID,98.0102,VALID,-0.0169808,VALID,19.5419,VALID,235,VALID,0,
2000-02-17, 03:18:00,VALID,0,VALID,98.0204,VALID,0.0169808,VALID,19.5253,VALID,235,VALID,0,
2000-02-17, 03:19:00,VALID,0,VALID,98.0204,VALID,0,VALID,19.5186,VALID,235,VALID,0,
2000-02-17, 03:20:00,VALID,0,VALID,97.9708,VALID,-0.0169808,VALID,19.5024,VALID,235,VALID,0,
2000-02-17, 03:21:00,VALID,0,VALID,97.9771,VALID,-0.101885,VALID,19.5069,VALID,235,VALID,0,
2000-02-17, 03:22:00,VALID,0,VALID,97.9542,VALID,-0.0849042,VALID,19.5101,VALID,231,VALID,0,
2000-02-17, 03:23:01,VALID,0,VALID,97.8958,VALID,-0.101885,VALID,19.5039,VALID,205,VALID,0,
2000-02-17, 03:24:00,VALID,0,VALID,97.8716,VALID,-0.0849042,VALID,19.5007,VALID,188,VALID,0,
2000-02-17, 03:25:00,VALID,0,VALID,97.747,VALID,-0.0849042,VALID,19.4689,VALID,179,VALID,0,
2000-02-17, 03:26:00,VALID,0,VALID,97.5702,VALID,-0.101885,VALID,19.4199,VALID,150,VALID,0,
2000-02-17, 03:27:00,VALID,0,VALID,97.4634,VALID,-0.118866,VALID,19.3779,VALID,144,VALID,0,
2000-02-17, 03:28:00,VALID,0,VALID,97.4837,VALID,-0.101885,VALID,19.3551,VALID,144,VALID,0,
2000-02-17, 03:29:00,VALID,0,VALID,97.4621,VALID,-0.0849042,VALID,19.3364,VALID,144,VALID,0,
2000-02-17, 03:30:00,VALID,0,VALID,97.3591,VALID,-0.0849042,VALID,19.3071,VALID,144,VALID,0,
2000-02-17, 03:31:00,VALID,0,VALID,97.2841,VALID,-0.0849042,VALID,19.2741,VALID,146,VALID,0,
2000-02-17, 03:32:00,VALID,0,VALID,96.6776,VALID,-0.0849042,VALID,19.2264,VALID,160,VALID,0,
2000-02-17, 03:33:00,VALID,0,VALID,95.2139,VALID,-0.101885,VALID,19.2104,VALID,162,VALID,0,
2000-02-17, 03:34:01,VALID,0,VALID,95.0283,VALID,-0.0849042,VALID,19.2944,VALID,156,VALID,0,
2000-02-17, 03:35:00,VALID,0,VALID,95.5433,VALID,-0.0849042,VALID,19.3456,VALID,156,VALID,0,
2000-02-17, 03:36:00,VALID,0,VALID,95.4441,VALID,0.0169808,VALID,19.2927,VALID,160,VALID,0,
2000-02-17, 03:37:00,VALID,0,VALID,95.219,VALID,0,VALID,19.2284,VALID,160,VALID,0,
2000-02-17, 03:38:00,VALID,0,VALID,95.2572,VALID,0.0169808,VALID,19.1993,VALID,160,VALID,0,
2000-02-17, 03:39:00,VALID,0,VALID,95.4708,VALID,0,VALID,19.1705,VALID,153,VALID,0,
2000-02-17, 03:40:00,VALID,0,VALID,95.715,VALID,0,VALID,19.1218,VALID,132,VALID,0,
2000-02-17, 03:41:00,VALID,0,VALID,95.8701,VALID,0,VALID,19.0704,VALID,131,VALID,0,
2000-02-17, 03:42:00,VALID,0,VALID,96.0685,VALID,-0.0169808,VALID,18.9896,VALID,128,VALID,0,
2000-02-17, 03:43:00,VALID,0,VALID,96.3215,VALID,-0.101885,VALID,18.9163,VALID,131,VALID,0,
2000-02-17, 03:44:00,VALID,0,VALID,96.5148,VALID,-0.0509425,VALID,18.8708,VALID,132,VALID,0.832589,
2000-02-17, 03:45:01,VALID,0,VALID,96.7195,VALID,-0.0849042,VALID,18.8519,VALID,144,VALID,1.35234,
2000-02-17, 03:46:00,VALID,0,VALID,96.7233,VALID,-0.101885,VALID,18.8683,VALID,140,VALID,0.988511,
2000-02-17, 03:47:00,VALID,0,VALID,96.6661,VALID,-0.101885,VALID,18.8685,VALID,128,VALID,0.668186,
2000-02-17, 03:48:00,VALID,0,VALID,96.6051,VALID,-0.118866,VALID,18.8298,VALID,123,VALID,0.569696,
2000-02-17, 03:49:00,VALID,0,VALID,96.7869,VALID,-0.135847,VALID,18.8169,VALID,111,VALID,0.659856,
2000-02-17, 03:50:00,VALID,0,VALID,96.853,VALID,-0.0679233,VALID,18.788,VALID,126,VALID,0.602163,
2000-02-17, 03:51:00,VALID,0,VALID,96.82,VALID,0.101885,VALID,18.7462,VALID,133,VALID,0.73712,
2000-02-17, 03:52:00,VALID,0,VALID,96.9395,VALID,0.101885,VALID,18.7072,VALID,129,VALID,0.960156,
2000-02-17, 03:53:00,VALID,0,VALID,96.9535,VALID,0.0679233,VALID,18.6856,VALID,116,VALID,1.35216,
2000-02-17, 03:54:00,VALID,0,VALID,97.3655,VALID,0.0679233,VALID,18.7211,VALID,118,VALID,1.32392,
2000-02-17, 03:55:00,VALID,0,VALID,97.1315,VALID,0.0849042,VALID,18.7176,VALID,140,VALID,0.835708,
2000-02-17, 03:56:01,VALID,0,VALID,97.5321,VALID,0.101885,VALID,18.7439,VALID,146,VALID,1.02973,
2000-02-17, 03:57:00,VALID,0,VALID,97.4965,VALID,0.0849042,VALID,18.7402,VALID,149,VALID,0.834635,
2000-02-17, 03:58:00,VALID,0,VALID,97.1595,VALID,0.101885,VALID,18.7174,VALID,149,VALID,0.68149,
2000-02-17, 03:59:00,VALID,0,VALID,96.9026,VALID,0.101885,VALID,18.6782,VALID,147,VALID,0.69391,
2000-02-17, 04:00:00,VALID,0,VALID,97.1633,VALID,0.101885,VALID,18.6918,VALID,164,VALID,0.738809,
2000-02-17, 04:01:00,VALID,0,VALID,97.2307,VALID,0.101885,VALID,18.6687,VALID,172,VALID,0.767829,
2000-02-17, 04:02:00,VALID,0,VALID,97.0781,VALID,0.101885,VALID,18.6622,VALID,182,VALID,0.715255,
2000-02-17, 04:03:00,VALID,0,VALID,96.9141,VALID,0.101885,VALID,18.6369,VALID,188,VALID,0.588141,
2000-02-17, 04:04:00,VALID,0,VALID,96.8696,VALID,0.101885,VALID,18.6108,VALID,210,VALID,0.461411,
2000-02-17, 04:05:01,VALID,0,VALID,96.9319,VALID,0.0849042,VALID,18.5951,VALID,227,VALID,0.292318,
2000-02-17, 04:06:01,VALID,0,VALID,96.909,VALID,0.0169808,VALID,18.6067,VALID,232,VALID,0.083133,
2000-02-17, 04:07:01,VALID,0,VALID,96.7805,VALID,0,VALID,18.5866,VALID,232,VALID,0,
2000-02-17, 04:08:00,VALID,0,VALID,96.5885,VALID,-0.0509425,VALID,18.5806,VALID,232,VALID,0,
2000-02-17, 04:09:00,VALID,0,VALID,96.4474,VALID,0,VALID,18.5938,VALID,195,VALID,0.0594618,
2000-02-17, 04:10:00,VALID,0,VALID,96.1842,VALID,-0.0339617,VALID,18.5645,VALID,175,VALID,0,
2000-02-17, 04:11:00,VALID,0,VALID,95.9998,VALID,-0.0509425,VALID,18.5324,VALID,175,VALID,0,
2000-02-17, 04:12:00,VALID,0,VALID,96.1905,VALID,-0.0169808,VALID,18.5128,VALID,175,VALID,0,
2000-02-17, 04:13:00,VALID,0,VALID,96.2414,VALID,0,VALID,18.5063,VALID,175,VALID,0,